P/2018 P3 ( PanSTARRS )

Japanese version
Home page
Updated on September 23, 2018

---------------------------------------------------------------------

* Profile

Discovery Date August 8, 2018
Magnitude 21.0 mag
Discoverer Pan-STARRS 1 telescope (Haleakala)

* Orbital Elements

Epoch 2018 Oct. 9.0 TT = JDT 2458400.5
T 2018 Oct.  9.51731 TT                                 MPCW
q   1.7565759            (2000.0)            P               Q
n   0.18894692     Peri.  305.91843     +0.98761110     -0.08319193
a   3.0077577      Node    59.20340     +0.13639683     +0.87434795
e   0.4159849      Incl.    8.91076     -0.07759002     +0.47811585
P   5.22
From 69 observations 2018 Aug. 8-Sept. 16, mean residual 0".4.

* Magnitudes Graph

        m1 = 8.2 + 5 log d + 40 log r

---------------------------------------------------------------------

The orbital elements are published on M.P.E.C. 2018-S50.
The magnitudes graphs are made with Comet for Windows.

---------------------------------------------------------------------

Copyright(C) Seiichi Yoshida (comet@aerith.net). All rights reserved.